LHB4 LSZR-LFTZ

Flight info

Callsign LHB4
Flight time 0h 52m
Altitude 45000
Route AMIKI DCT KLO DCT ALETO DCT NITAM DCT PERUS
Aircraft C750/M-SBDE3FGHRWXY/S

Departure

Time 2026-04-20 18:46
Airport Sankt Gallen Altenrhein Airport (LSZR)

Arrival

Time 2026-04-20 19:38
Airport La Môle Airport (LFTZ)
Time Latitude Longitude Altitude Speed Heading
2026-04-20 18:25 47.48717 9.55298 1310 ft 0 kts
2026-04-20 18:42 47.48718 9.55298 1310 ft 2 kts
2026-04-20 18:42 47.48731 9.55337 1309 ft 6 kts 112°
2026-04-20 18:42 47.48704 9.55347 1310 ft 5 kts 186°
2026-04-20 18:43 47.48647 9.55337 1311 ft 8 kts 183°
2026-04-20 18:43 47.48595 9.55332 1314 ft 9 kts 157°
2026-04-20 18:43 47.48569 9.55465 1315 ft 23 kts 99°
2026-04-20 18:43 47.48531 9.55821 1317 ft 47 kts 98°
2026-04-20 18:44 47.48493 9.56174 1309 ft 54 kts 99°
2026-04-20 18:44 47.48441 9.56701 1307 ft 50 kts 98°
2026-04-20 18:44 47.48419 9.57018 1312 ft 11 kts 70°
2026-04-20 18:44 47.48409 9.57031 1313 ft 2 kts 252°
2026-04-20 18:45 47.48409 9.56980 1311 ft 0 kts 280°
2026-04-20 18:45 47.48417 9.56911 1309 ft 39 kts 279°
2026-04-20 18:45 47.48475 9.56352 1309 ft 120 kts 279°
2026-04-20 18:45 47.48680 9.54412 1737 ft 157 kts 279°
2026-04-20 18:46 47.48804 9.53313 2174 ft 164 kts 281°
2026-04-20 18:46 47.49041 9.51573 2806 ft 179 kts 285°
2026-04-20 18:46 47.49268 9.49695 3415 ft 196 kts 283°
2026-04-20 18:46 47.49502 9.47575 3863 ft 224 kts 282°
2026-04-20 18:47 47.49763 9.45157 4446 ft 251 kts 281°
2026-04-20 18:47 47.50053 9.42487 5126 ft 272 kts 280°
2026-04-20 18:47 47.50354 9.39720 6296 ft 272 kts 279°
2026-04-20 18:47 47.50653 9.36981 7584 ft 268 kts 279°
2026-04-20 18:48 47.50950 9.34271 8899 ft 266 kts 279°
2026-04-20 18:48 47.51437 9.31628 9962 ft 272 kts 295°
2026-04-20 18:48 47.52565 9.29325 10622 ft 287 kts 307°
2026-04-20 18:48 47.53870 9.26937 10871 ft 314 kts 307°
2026-04-20 18:49 47.55157 9.24169 11089 ft 333 kts 294°
2026-04-20 18:49 47.55756 9.20899 12040 ft 328 kts 280°
2026-04-20 18:49 47.56097 9.17551 12903 ft 330 kts 278°
2026-04-20 18:49 47.56395 9.14174 13756 ft 332 kts 278°
2026-04-20 18:50 47.56711 9.10778 14523 ft 334 kts 278°
2026-04-20 18:50 47.57046 9.07370 15278 ft 335 kts 279°
2026-04-20 18:50 47.57117 9.03914 15958 ft 340 kts 267°
2026-04-20 18:50 47.56626 9.00475 16753 ft 344 kts 256°
2026-04-20 18:51 47.55820 8.97118 17485 ft 348 kts 254°
2026-04-20 18:51 47.54701 8.93890 18230 ft 358 kts 243°
2026-04-20 18:51 47.53128 8.90990 18944 ft 368 kts 232°
2026-04-20 18:51 47.51152 8.88574 19641 ft 380 kts 221°
2026-04-20 18:52 47.48893 8.86487 20332 ft 385 kts 219°
2026-04-20 18:52 47.46612 8.84391 21055 ft 387 kts 220°
2026-04-20 18:52 47.44314 8.82272 21696 ft 392 kts 220°
2026-04-20 18:52 47.41986 8.80136 22373 ft 396 kts 220°
2026-04-20 18:53 47.39628 8.77985 23077 ft 400 kts 220°
2026-04-20 18:53 47.37254 8.75816 23729 ft 403 kts 220°
2026-04-20 18:53 47.34858 8.73621 24272 ft 407 kts 220°
2026-04-20 18:53 47.32445 8.71416 24813 ft 411 kts 220°
2026-04-20 18:54 47.30001 8.69190 25371 ft 414 kts 220°
2026-04-20 18:54 47.27542 8.66952 25912 ft 418 kts 220°
2026-04-20 18:54 47.25057 8.64692 26432 ft 421 kts 220°
2026-04-20 18:54 47.22554 8.62415 26989 ft 425 kts 220°
2026-04-20 18:55 47.20028 8.60123 27563 ft 428 kts 220°
2026-04-20 18:55 47.17481 8.57814 28129 ft 432 kts 219°
2026-04-20 18:55 47.14915 8.55490 28713 ft 435 kts 219°
2026-04-20 18:55 47.12325 8.53147 29252 ft 439 kts 219°
2026-04-20 18:56 47.09715 8.50789 29815 ft 443 kts 219°
2026-04-20 18:56 47.07078 8.48409 30280 ft 446 kts 219°
2026-04-20 18:56 47.04428 8.46021 30798 ft 449 kts 219°
2026-04-20 18:56 47.01759 8.43618 31266 ft 451 kts 219°
2026-04-20 18:57 46.99094 8.41226 31943 ft 448 kts 219°
2026-04-20 18:57 46.96438 8.38840 32539 ft 448 kts 218°
2026-04-20 18:57 46.93782 8.36453 33143 ft 448 kts 218°
2026-04-20 18:57 46.91122 8.34069 33736 ft 449 kts 218°
2026-04-20 18:58 46.88467 8.31693 34376 ft 447 kts 218°
2026-04-20 18:58 46.85815 8.29323 34994 ft 445 kts 218°
2026-04-20 18:58 46.83177 8.26967 35524 ft 445 kts 218°
2026-04-20 18:58 46.80532 8.24602 35920 ft 447 kts 218°
2026-04-20 18:59 46.77881 8.22242 36489 ft 447 kts 217°
2026-04-20 18:59 46.75220 8.19882 37016 ft 448 kts 217°
2026-04-20 18:59 46.72559 8.17512 37543 ft 449 kts 217°
2026-04-20 18:59 46.69892 8.15139 38056 ft 450 kts 217°
2026-04-20 19:00 46.67220 8.12773 38586 ft 449 kts 217°
2026-04-20 19:00 46.64545 8.10411 39098 ft 449 kts 217°
2026-04-20 19:00 46.61874 8.08047 39559 ft 450 kts 217°
2026-04-20 19:00 46.59203 8.05681 40024 ft 451 kts 217°
2026-04-20 19:01 46.56519 8.03312 40475 ft 451 kts 217°
2026-04-20 19:01 46.53838 8.00952 40963 ft 450 kts 216°
2026-04-20 19:01 46.51158 7.98593 41424 ft 451 kts 216°
2026-04-20 19:01 46.48476 7.96231 41828 ft 453 kts 216°
2026-04-20 19:02 46.45781 7.93862 42309 ft 452 kts 216°
2026-04-20 19:02 46.43088 7.91503 42839 ft 452 kts 216°
2026-04-20 19:02 46.40396 7.89145 43284 ft 452 kts 216°
2026-04-20 19:02 46.37591 7.87024 43640 ft 458 kts 207°
2026-04-20 19:03 46.34623 7.85324 44130 ft 458 kts 205°
2026-04-20 19:03 46.31645 7.83671 44548 ft 459 kts 205°
2026-04-20 19:03 46.28681 7.81971 44937 ft 457 kts 206°
2026-04-20 19:03 46.25715 7.80236 45001 ft 465 kts 206°
2026-04-20 19:04 46.19589 7.76742 45008 ft 482 kts 205°
2026-04-20 19:04 46.13267 7.73138 45001 ft 496 kts 206°
2026-04-20 19:05 46.06789 7.69447 44985 ft 502 kts 205°
2026-04-20 19:05 46.00279 7.65761 44983 ft 503 kts 205°
2026-04-20 19:06 45.93772 7.62063 44968 ft 502 kts 205°
2026-04-20 19:06 45.87296 7.58416 44966 ft 504 kts 205°
2026-04-20 19:07 45.80783 7.54739 44972 ft 503 kts 205°
2026-04-20 19:07 45.74274 7.51084 44954 ft 503 kts 205°
2026-04-20 19:08 45.64518 7.45615 44953 ft 503 kts 205°
2026-04-20 19:09 45.58015 7.41986 44943 ft 502 kts 205°
2026-04-20 19:09 45.51501 7.38356 44923 ft 501 kts 205°
2026-04-20 19:10 45.45003 7.34744 44939 ft 502 kts 205°
2026-04-20 19:10 45.38483 7.31129 44956 ft 503 kts 205°
2026-04-20 19:11 45.31975 7.27531 44971 ft 504 kts 206°
2026-04-20 19:11 45.25460 7.23938 44980 ft 500 kts 205°
2026-04-20 19:11 45.22243 7.22170 44449 ft 491 kts 205°
2026-04-20 19:12 45.19094 7.20440 43815 ft 479 kts 206°
2026-04-20 19:12 45.16025 7.18753 43204 ft 468 kts 206°
2026-04-20 19:12 45.13034 7.17102 42607 ft 455 kts 207°
2026-04-20 19:12 45.10251 7.15117 41999 ft 442 kts 217°
2026-04-20 19:13 45.07785 7.12608 41428 ft 433 kts 224°
2026-04-20 19:13 45.05448 7.09931 40862 ft 433 kts 224°
2026-04-20 19:13 45.03089 7.07270 40306 ft 434 kts 224°
2026-04-20 19:13 45.00716 7.04623 39799 ft 435 kts 224°
2026-04-20 19:14 44.98343 7.01958 39163 ft 436 kts 224°
2026-04-20 19:14 44.95980 6.99288 38570 ft 434 kts 224°
2026-04-20 19:14 44.93632 6.96645 37961 ft 430 kts 224°
2026-04-20 19:14 44.91285 6.94010 37389 ft 433 kts 224°
2026-04-20 19:15 44.88928 6.91373 36814 ft 431 kts 224°
2026-04-20 19:15 44.86573 6.88746 36249 ft 433 kts 224°
2026-04-20 19:15 44.84213 6.86110 35675 ft 433 kts 224°
2026-04-20 19:15 44.81852 6.83471 35119 ft 435 kts 224°
2026-04-20 19:16 44.79474 6.80817 34536 ft 435 kts 224°
2026-04-20 19:16 44.77100 6.78173 33970 ft 436 kts 224°
2026-04-20 19:16 44.74725 6.75531 33360 ft 436 kts 224°
2026-04-20 19:16 44.72337 6.72872 32790 ft 439 kts 224°
2026-04-20 19:17 44.69939 6.70208 32204 ft 440 kts 224°
2026-04-20 19:17 44.67529 6.67536 31626 ft 443 kts 224°
2026-04-20 19:17 44.65136 6.64885 31048 ft 445 kts 224°
2026-04-20 19:17 44.62702 6.62190 30463 ft 447 kts 223°
2026-04-20 19:18 44.60238 6.59465 29829 ft 442 kts 223°
2026-04-20 19:18 44.57862 6.56846 29253 ft 439 kts 223°
2026-04-20 19:18 44.55440 6.54173 28661 ft 435 kts 223°
2026-04-20 19:18 44.53069 6.51557 28090 ft 432 kts 224°
2026-04-20 19:19 44.50747 6.49000 27529 ft 429 kts 223°
2026-04-20 19:19 44.48405 6.46425 26967 ft 427 kts 224°
2026-04-20 19:19 44.46077 6.43867 26402 ft 424 kts 224°
2026-04-20 19:19 44.43767 6.41333 25845 ft 420 kts 224°
2026-04-20 19:20 44.41466 6.38810 25284 ft 420 kts 223°
2026-04-20 19:20 44.39174 6.36298 24741 ft 417 kts 223°
2026-04-20 19:20 44.36900 6.33811 24198 ft 414 kts 223°
2026-04-20 19:20 44.34640 6.31340 23647 ft 411 kts 223°
2026-04-20 19:21 44.32394 6.28886 23066 ft 410 kts 223°
2026-04-20 19:21 44.30155 6.26445 22520 ft 405 kts 223°
2026-04-20 19:21 44.27942 6.24034 21990 ft 402 kts 223°
2026-04-20 19:21 44.25745 6.21645 21454 ft 399 kts 223°
2026-04-20 19:22 44.23563 6.19267 20935 ft 398 kts 223°
2026-04-20 19:22 44.21389 6.16901 20411 ft 395 kts 223°
2026-04-20 19:22 44.19228 6.14559 19893 ft 391 kts 223°
2026-04-20 19:22 44.17048 6.12297 19354 ft 394 kts 218°
2026-04-20 19:23 44.14509 6.10797 18877 ft 399 kts 200°
2026-04-20 19:23 44.11924 6.10329 18983 ft 369 kts 187°
2026-04-20 19:23 44.09467 6.10306 18993 ft 339 kts 186°
2026-04-20 19:23 44.07136 6.10309 19003 ft 338 kts 186°
2026-04-20 19:24 44.04676 6.10277 18657 ft 372 kts 185°
2026-04-20 19:24 44.01970 6.10251 18213 ft 393 kts 184°
2026-04-20 19:24 43.99424 6.10281 17680 ft 361 kts 184°
2026-04-20 19:24 43.96923 6.10279 16962 ft 353 kts 185°
2026-04-20 19:25 43.94552 6.10255 16301 ft 333 kts 185°
2026-04-20 19:25 43.92267 6.10238 16114 ft 325 kts 185°
2026-04-20 19:25 43.90005 6.10230 15855 ft 326 kts 185°
2026-04-20 19:25 43.87736 6.10220 15579 ft 326 kts 185°
2026-04-20 19:26 43.85473 6.10212 15283 ft 324 kts 185°
2026-04-20 19:26 43.83226 6.10204 15006 ft 323 kts 185°
2026-04-20 19:26 43.80983 6.10193 14733 ft 322 kts 185°
2026-04-20 19:26 43.78751 6.10184 14440 ft 320 kts 185°
2026-04-20 19:27 43.76558 6.10176 14172 ft 319 kts 185°
2026-04-20 19:27 43.74349 6.10168 13890 ft 317 kts 185°
2026-04-20 19:27 43.72143 6.10159 13598 ft 317 kts 185°
2026-04-20 19:27 43.69948 6.10152 13306 ft 314 kts 185°
2026-04-20 19:28 43.67768 6.10144 13022 ft 312 kts 185°
2026-04-20 19:28 43.65602 6.10136 12745 ft 309 kts 185°
2026-04-20 19:28 43.63457 6.10128 12477 ft 307 kts 185°
2026-04-20 19:28 43.61322 6.10119 12206 ft 307 kts 185°
2026-04-20 19:29 43.59194 6.10149 11937 ft 306 kts 181°
2026-04-20 19:29 43.57060 6.10376 11579 ft 307 kts 180°
2026-04-20 19:29 43.54937 6.10550 11183 ft 304 kts 181°
2026-04-20 19:29 43.52832 6.10721 10780 ft 302 kts 180°
2026-04-20 19:30 43.50745 6.10917 10391 ft 300 kts 180°
2026-04-20 19:30 43.48666 6.11115 9999 ft 298 kts 180°
2026-04-20 19:30 43.46610 6.11331 9571 ft 297 kts 177°
2026-04-20 19:30 43.44667 6.12322 9126 ft 303 kts 150°
2026-04-20 19:31 43.43586 6.13602 8863 ft 305 kts 133°
2026-04-20 19:31 43.42076 6.16836 8413 ft 304 kts 121°
2026-04-20 19:31 43.41353 6.18536 8145 ft 304 kts 121°
2026-04-20 19:31 43.40279 6.21025 7740 ft 302 kts 121°
2026-04-20 19:32 43.39200 6.23481 7338 ft 299 kts 122°
2026-04-20 19:32 43.38117 6.25898 6945 ft 295 kts 124°
2026-04-20 19:32 43.36970 6.28226 6563 ft 294 kts 123°
2026-04-20 19:32 43.35903 6.30622 6145 ft 294 kts 121°
2026-04-20 19:33 43.34842 6.32999 5795 ft 289 kts 122°
2026-04-20 19:33 43.33800 6.35345 5584 ft 287 kts 120°
2026-04-20 19:33 43.32897 6.37840 5079 ft 291 kts 110°
2026-04-20 19:33 43.32386 6.40425 4798 ft 274 kts 101°
2026-04-20 19:34 43.31962 6.42970 4119 ft 277 kts 101°
2026-04-20 19:34 43.31540 6.45493 3836 ft 265 kts 102°
2026-04-20 19:34 43.31119 6.47895 3526 ft 254 kts 103°
2026-04-20 19:34 43.30704 6.50248 3085 ft 254 kts 103°
2026-04-20 19:35 43.30259 6.52617 2500 ft 257 kts 105°
2026-04-20 19:35 43.29737 6.54919 2210 ft 246 kts 108°
2026-04-20 19:35 43.29045 6.56984 1948 ft 230 kts 126°
2026-04-20 19:35 43.27899 6.58269 1793 ft 203 kts 156°
2026-04-20 19:36 43.26577 6.58726 1510 ft 189 kts 184°
2026-04-20 19:36 43.25459 6.58011 1274 ft 179 kts 229°
2026-04-20 19:36 43.24937 6.56452 874 ft 181 kts 253°
2026-04-20 19:36 43.24363 6.55133 749 ft 147 kts 231°
2026-04-20 19:37 43.23705 6.54198 741 ft 130 kts 227°
2026-04-20 19:37 43.23070 6.53315 695 ft 128 kts 229°
2026-04-20 19:37 43.22476 6.52394 653 ft 128 kts 231°
2026-04-20 19:37 43.21919 6.51436 579 ft 130 kts 236°
2026-04-20 19:38 43.21413 6.50411 423 ft 130 kts 240°
2026-04-20 19:38 43.20990 6.49345 199 ft 126 kts 243°
2026-04-20 19:38 43.20589 6.48312 67 ft 107 kts 242°
2026-04-20 19:38 43.20366 6.47741 72 ft 40 kts 242°
2026-04-20 19:39 43.20300 6.47567 67 ft 9 kts 243°
2026-04-20 19:39 43.20310 6.47510 67 ft 6 kts 338°
2026-04-20 19:39 43.20339 6.47534 65 ft 5 kts 66°
2026-04-20 19:39 43.20357 6.47578 69 ft 5 kts 60°
2026-04-20 19:40 43.20373 6.47622 72 ft 5 kts 66°
2026-04-20 19:40 43.20387 6.47664 71 ft 4 kts 64°
2026-04-20 19:40 43.20401 6.47699 71 ft 5 kts 64°
2026-04-20 19:40 43.20419 6.47703 73 ft 4 kts 295°
2026-04-20 19:41 43.20414 6.47687 68 ft 3 kts 270°
2026-04-20 19:41 43.20408 6.47675 72 ft 3 kts 243°
2026-04-20 19:41 43.20401 6.47662 71 ft 0 kts 188°